Wind_Speed
15 5 17 28 17 4 4 5 6 6 7 15 17 11 18 28 26 28 30 33 34 38 43 44 44 39 41 39 37 35 35 33 32 31 29 27 24 21 17 13 13 12 8 5
6 18 19 6 8 11 7 5 6 7 5 14 16 17 18 21 31 40 38 38 40 37 40 45 48 43 44 42 42 40 38 37 36 35 30 28 27 27 22 17 13 13 12 8
9 3 14 10 10 14 13 13 9 8 2 8 6 17 14 22 19 25 32 36 34 41 44 46 47 50 49 47 47 46 41 40 40 37 35 32 29 29 29 25 21 16 14 12
13 14 17 18 17 12 13 13 15 11 3 5 8 5 14 20 20 20 32 35 37 40 42 44 47 50 52 53 51 47 46 43 43 42 37 33 30 35 33 32 26 21 16 14
14 14 18 16 20 17 13 6 8 8 4 2 13 2 6 17 18 24 28 36 42 43 44 50 52 52 54 54 53 50 48 47 43 45 40 35 31 32 35 34 29 26 21 17
10 17 16 26 11 14 4 4 3 2 4 10 16 7 5 17 22 27 33 39 42 43 45 52 54 51 50 55 55 54 52 50 47 48 44 39 34 30 31 32 34 31 27 24
8 20 15 7 16 10 10 9 4 4 5 12 8 6 13 21 24 25 28 43 45 43 41 42 45 49 54 53 56 55 55 52 49 51 47 41 36 32 30 30 31 31 27 26
5 8 14 10 16 14 11 12 6 9 4 10 5 7 6 16 24 36 42 47 45 40 38 41 45 55 55 57 58 56 56 56 51 54 49 43 39 34 31 30 30 31 30 26
4 7 11 19 14 17 12 19 10 4 3 3 4 4 5 8 12 21 30 31 36 41 43 47 46 49 55 56 58 58 57 55 54 56 51 46 41 37 34 32 30 31 30 24
2 6 7 13 11 15 16 8 9 5 9 6 4 5 9 13 11 18 21 25 32 43 44 41 44 49 53 56 57 56 56 56 54 56 52 48 43 38 35 34 34 31 30 28
1 3 8 8 6 24 6 14 7 6 4 11 2 8 6 11 17 16 20 33 37 43 49 50 44 50 53 51 54 56 58 57 57 55 51 49 46 42 38 35 35 33 31 30
2 1 6 10 14 15 8 8 8 10 14 2 7 14 2 10 11 18 26 34 41 46 49 53 49 46 50 47 48 56 58 59 57 52 51 51 47 43 42 37 34 34 33 31
1 2 6 8 2 4 3 3 14 4 4 12 17 12 5 6 6 19 22 31 31 39 45 51 43 43 52 51 50 53 56 57 57 53 53 52 50 46 43 39 36 34 35 34
5 5 7 7 8 14 11 20 19 11 12 6 14 10 8 9 8 9 18 27 33 40 48 45 43 46 55 51 53 54 54 53 53 52 51 50 49 46 43 38 37 35 35 36
1 5 8 11 18 20 20 23 24 14 14 15 13 10 10 11 8 8 20 24 33 44 48 45 48 47 51 51 50 53 50 48 49 49 50 49 46 43 39 37 35 34 34 36
2 3 3 8 22 19 19 19 18 20 21 6 4 11 6 5 8 19 21 24 30 34 46 48 51 48 49 57 54 51 47 46 46 46 45 43 43 42 39 36 36 34 35 34
4 4 3 6 8 13 5 7 13 12 16 4 7 3 8 7 13 17 25 17 21 34 42 46 51 50 53 59 56 52 48 47 47 47 45 44 44 41 39 36 36 36 34 34
6 3 2 6 7 7 9 8 5 23 22 20 10 5 6 15 18 33 31 25 7 16 34 45 47 48 52 54 55 48 47 46 45 45 44 43 42 40 38 37 37 36 35 35
6 2 1 3 7 8 1 6 9 5 16 23 20 18 6 8 25 27 34 30 25 17 20 30 37 41 40 47 46 45 44 44 43 42 41 40 38 36 35 34 33 33 33 33
8 5 2 3 4 5 4 18 23 11 10 20 23 19 18 14 9 6 26 27 27 28 19 21 30 31 32 35 40 42 42 41 40 39 38 38 35 34 34 31 28 27 30 29
5 3 9 10 5 1 9 23 24 6 1 19 22 25 23 12 6 16 26 28 29 29 30 28 24 28 30 33 34 34 35 34 34 37 36 34 32 33 35 34 32 30 31 31
3 2 1 3 4 4 22 8 6 4 3 12 22 27 27 20 21 26 29 32 32 31 33 33 30 29 25 20 27 29 27 27 27 27 29 31 33 34 34 35 33 34 34 34
4 3 2 2 2 3 12 9 12 13 10 17 24 27 27 27 20 24 26 28 30 31 32 30 33 32 27 23 22 23 19 15 13 14 16 20 24 27 28 30 30 33 33 32
6 13 3 8 3 13 19 2 3 13 19 18 23 23 20 22 23 20 22 23 25 27 26 27 27 28 27 24 20 17 13 10 9 8 8 7 10 14 19 23 26 29 30 30
6 9 6 5 8 22 7 14 25 20 18 24 23 19 16 14 17 20 18 20 20 21 20 21 24 23 20 18 17 16 12 7 4 6 7 8 9 12 16 18 21 25 27 29
11 3 3 4 19 12 23 23 15 15 18 18 21 22 15 14 11 14 15 14 16 17 16 17 17 17 16 12 11 9 7 6 5 4 9 12 13 14 16 19 22 25 27 28
Wind_Direction
192 173 202 211 207 183 170 177 185 211 219 192 214 200 178 179 178 184 193 196 197 200 202 201 198 204 203 209 208 205 204 201 200 200 199 202 209 210 208 201 199 206 205 209
144 215 217 201 183 214 243 241 241 284 208 195 211 218 190 180 192 189 191 198 202 200 203 204 201 204 208 210 213 211 214 214 209 208 207 209 211 217 216 213 211 210 218 216
198 223 185 201 194 200 217 220 229 222 73 206 221 237 181 201 199 200 197 206 210 202 202 204 206 205 208 211 213 214 218 221 217 215 214 216 217 219 219 217 217 213 216 220
231 232 197 192 216 189 215 208 226 241 156 216 184 249 204 188 199 202 205 199 214 210 209 208 208 210 207 213 213 218 221 222 221 218 217 219 222 220 221 222 223 224 222 221
215 196 222 209 208 195 227 191 205 233 209 257 256 171 222 184 206 206 212 206 210 212 209 209 210 210 207 208 211 216 220 223 221 220 219 219 224 227 226 226 224 227 226 229
245 248 207 227 220 213 166 209 202 106 166 243 243 166 239 192 208 204 210 212 210 211 208 214 212 210 210 209 212 215 218 224 223 220 220 221 224 228 227 227 227 225 227 230
328 248 260 217 205 201 195 148 237 234 202 233 201 213 223 203 214 208 199 210 212 210 209 212 209 211 212 210 214 216 218 221 225 221 221 224 227 232 232 227 220 217 217 221
13 270 222 226 207 200 208 195 170 188 186 222 199 209 233 199 221 216 214 202 204 205 210 213 214 215 211 212 216 217 219 222 224 222 223 226 230 233 233 231 226 221 220 224
19 263 322 299 238 188 197 208 193 91 320 161 219 259 231 203 221 214 218 214 209 205 206 218 213 214 213 214 218 220 222 223 224 222 224 227 230 234 235 232 229 226 225 225
62 302 280 301 303 228 207 164 190 216 193 218 275 218 221 166 204 219 226 213 210 211 208 214 211 212 216 219 220 221 223 223 222 222 225 229 232 235 237 235 232 229 228 228
60 132 295 337 236 218 202 205 206 169 186 219 241 244 212 180 186 200 221 221 212 209 208 213 208 212 214 218 219 223 222 221 222 223 226 230 232 234 237 238 235 233 231 229
22 123 273 254 280 303 275 208 165 199 214 237 243 243 271 232 170 193 206 215 217 211 209 211 210 209 210 209 218 219 221 221 224 227 229 230 232 236 236 238 238 235 233 230
48 91 303 299 255 16 335 260 215 175 113 212 225 240 249 268 272 186 202 219 217 214 212 212 207 203 213 209 215 222 224 225 226 228 229 231 233 235 237 238 240 240 236 232
161 202 210 255 316 312 289 310 309 302 216 188 228 225 263 267 241 263 212 220 222 223 217 210 201 199 210 211 212 221 226 228 226 227 231 233 234 235 238 240 241 243 240 236
171 240 238 260 273 276 274 277 286 287 260 206 229 195 220 233 252 275 302 285 239 223 211 205 198 197 205 211 210 219 225 228 229 228 229 233 234 235 236 237 239 240 241 239
150 264 321 289 275 251 249 265 265 255 259 209 194 234 195 62 52 11 339 286 251 209 197 197 197 196 199 211 216 220 222 223 225 226 228 229 232 232 232 232 235 238 240 240
142 245 47 267 305 308 212 320 307 79 34 335 210 282 306 51 56 26 356 328 234 197 191 195 195 195 202 212 218 220 221 224 228 230 230 229 228 229 231 232 235 236 238 240
150 210 91 279 300 186 151 22 345 81 44 23 4 290 148 101 75 43 18 17 57 202 200 196 194 196 202 210 215 216 219 225 228 230 231 232 232 232 233 236 239 241 242 243
131 138 259 265 318 103 348 354 336 21 44 15 11 20 349 95 53 29 18 30 45 96 168 187 191 194 195 206 211 213 217 222 226 230 232 233 234 236 237 239 241 244 246 248
139 175 299 314 272 170 272 310 313 247 44 357 3 7 12 47 67 343 17 38 56 77 111 164 186 196 196 205 214 213 216 219 227 231 235 236 237 239 240 243 244 247 249 251
137 185 228 238 258 158 312 317 313 72 224 335 357 6 5 37 52 39 44 49 57 72 87 107 149 175 188 201 213 216 217 223 229 233 233 238 243 245 247 249 250 251 253 256
81 300 273 264 220 151 334 355 68 165 74 353 359 5 2 20 42 43 41 43 49 62 83 94 106 117 120 148 193 204 211 225 231 241 246 246 249 250 250 253 253 254 256 258
65 345 277 256 300 347 1 80 74 57 28 1 350 0 8 13 27 37 35 36 39 48 66 87 92 98 105 112 126 141 151 169 180 204 220 238 249 253 254 256 254 253 256 258
357 11 341 322 6 312 325 103 68 357 344 340 343 343 357 3 17 25 31 31 32 38 54 73 89 91 92 95 103 111 121 143 160 164 171 198 223 239 247 253 251 251 251 254
4 314 310 260 273 327 79 331 332 336 331 332 335 342 346 354 9 18 24 27 29 32 42 60 70 79 88 93 98 96 95 97 175 209 218 230 243 245 245 244 245 249 253 255
340 297 338 336 318 292 280 320 341 331 321 327 327 328 335 339 339 355 15 20 12 16 22 44 49 59 66 85 90 84 70 48 20 294 262 256 256 259 258 252 251 250 253 256
Height
1463 1471 1467 1456 1463 1468 1470 1472 1475 1467 1463 1469 1470 1472 1478 1480 1488 1493 1497 1499 1501 1502 1508 1513 1519 1523 1528 1533 1537 1541 1546 1550 1555 1559 1562 1566 1568 1572 1574 1576 1578 1580 1583 1585
1463 1459 1452 1461 1465 1469 1471 1476 1476 1465 1461 1466 1466 1469 1470 1476 1475 1477 1484 1490 1491 1498 1504 1508 1513 1518 1521 1527 1533 1537 1541 1546 1551 1556 1559 1563 1567 1570 1574 1575 1577 1579 1582 1584
1453 1446 1453 1458 1463 1468 1470 1474 1473 1471 1463 1459 1464 1471 1467 1471 1477 1483 1483 1487 1494 1491 1495 1501 1506 1510 1516 1520 1526 1531 1536 1541 1547 1552 1556 1560 1565 1568 1570 1573 1576 1578 1580 1583
1450 1442 1445 1449 1456 1459 1476 1458 1462 1466 1474 1482 1460 1495 1466 1467 1473 1475 1477 1480 1487 1489 1491 1496 1501 1505 1507 1512 1521 1528 1532 1537 1542 1547 1552 1556 1559 1562 1566 1570 1574 1577 1579 1582
1436 1437 1442 1447 1441 1449 1453 1453 1460 1463 1472 1474 1463 1485 1470 1459 1471 1465 1465 1470 1475 1481 1484 1487 1491 1496 1501 1508 1513 1521 1528 1533 1538 1542 1548 1552 1555 1559 1563 1568 1572 1575 1577 1580
1439 1432 1431 1431 1437 1443 1446 1452 1459 1463 1475 1482 1461 1475 1472 1460 1452 1450 1453 1460 1464 1473 1476 1478 1485 1493 1498 1503 1508 1514 1521 1526 1532 1537 1543 1547 1551 1555 1559 1563 1567 1571 1574 1576
1443 1429 1430 1429 1437 1440 1445 1462 1491 1494 1491 1473 1456 1467 1449 1440 1435 1437 1439 1447 1453 1464 1470 1474 1480 1487 1491 1497 1501 1508 1514 1519 1526 1531 1537 1542 1547 1551 1555 1559 1563 1567 1570 1571
1475 1449 1425 1421 1425 1437 1443 1452 1479 1491 1488 1464 1452 1464 1445 1427 1422 1427 1432 1435 1446 1455 1463 1467 1470 1475 1481 1487 1492 1499 1506 1514 1519 1525 1531 1537 1542 1547 1551 1555 1559 1563 1566 1569
1474 1461 1435 1429 1417 1422 1433 1441 1438 1461 1463 1465 1444 1438 1426 1423 1423 1423 1428 1437 1445 1447 1454 1457 1465 1468 1473 1479 1483 1489 1497 1505 1512 1518 1525 1531 1536 1541 1545 1550 1554 1558 1562 1566
1476 1471 1446 1430 1421 1412 1416 1424 1449 1456 1472 1475 1456 1441 1426 1429 1427 1421 1421 1428 1434 1438 1448 1452 1458 1461 1463 1468 1474 1482 1489 1496 1503 1512 1518 1524 1530 1535 1540 1544 1548 1552 1557 1561
1476 1473 1452 1443 1419 1412 1420 1417 1420 1431 1448 1449 1469 1438 1408 1413 1414 1417 1414 1416 1421 1427 1434 1439 1447 1453 1458 1464 1469 1475 1483 1490 1498 1505 1512 1518 1523 1529 1534 1538 1543 1547 1552 1556
1477 1474 1466 1447 1415 1421 1427 1412 1420 1425 1442 1447 1434 1424 1396 1398 1404 1405 1406 1407 1410 1414 1420 1428 1438 1446 1452 1460 1463 1469 1476 1483 1490 1497 1505 1511 1517 1522 1527 1532 1537 1542 1546 1551
1477 1475 1470 1435 1418 1413 1420 1405 1400 1411 1422 1433 1432 1416 1397 1397 1397 1402 1402 1402 1405 1409 1413 1418 1431 1439 1444 1450 1456 1461 1468 1475 1483 1491 1498 1504 1509 1514 1520 1525 1531 1535 1540 1545
1473 1473 1470 1459 1447 1456 1449 1431 1429 1427 1416 1425 1413 1417 1405 1397 1398 1394 1400 1398 1398 1402 1405 1412 1421 1426 1435 1441 1448 1454 1462 1468 1476 1484 1490 1497 1502 1507 1513 1519 1524 1528 1533 1538
1472 1470 1466 1462 1457 1453 1447 1441 1428 1431 1406 1404 1402 1413 1405 1394 1392 1391 1386 1385 1387 1387 1391 1402 1408 1416 1424 1434 1443 1449 1457 1462 1469 1477 1483 1489 1495 1501 1508 1512 1516 1521 1525 1529
1473 1467 1465 1454 1442 1438 1437 1428 1421 1414 1405 1395 1394 1397 1386 1391 1389 1386 1384 1376 1370 1369 1379 1390 1398 1408 1417 1426 1434 1440 1449 1455 1462 1469 1475 1483 1489 1494 1499 1504 1509 1513 1517 1521
1470 1469 1460 1453 1433 1422 1430 1419 1408 1398 1407 1404 1399 1394 1391 1390 1389 1391 1383 1373 1368 1368 1373 1384 1391 1401 1409 1418 1426 1433 1440 1449 1456 1462 1469 1476 1481 1487 1492 1497 1502 1506 1510 1514
1464 1464 1464 1459 1437 1416 1419 1417 1409 1404 1411 1409 1404 1393 1394 1389 1393 1387 1390 1381 1373 1373 1377 1380 1387 1396 1404 1413 1422 1431 1439 1445 1451 1457 1464 1470 1475 1480 1486 1490 1494 1498 1503 1506
1456 1460 1461 1455 1431 1410 1411 1420 1421 1411 1421 1418 1412 1402 1400 1389 1382 1389 1392 1386 1381 1377 1377 1382 1388 1395 1404 1411 1419 1428 1436 1442 1447 1452 1457 1463 1469 1474 1479 1483 1487 1492 1495 1498
1456 1461 1464 1455 1440 1419 1423 1417 1412 1407 1428 1427 1422 1412 1407 1390 1406 1414 1403 1395 1389 1382 1380 1382 1389 1397 1405 1412 1418 1425 1432 1437 1442 1447 1452 1458 1464 1469 1473 1478 1483 1486 1489 1492
1453 1459 1458 1451 1444 1426 1426 1417 1406 1424 1449 1437 1429 1423 1418 1416 1420 1418 1410 1403 1396 1391 1388 1388 1392 1398 1404 1410 1416 1423 1430 1434 1438 1443 1450 1455 1460 1464 1468 1472 1477 1481 1483 1486
1450 1451 1445 1443 1429 1427 1432 1414 1420 1437 1438 1437 1432 1430 1426 1426 1424 1419 1416 1410 1405 1400 1395 1395 1399 1403 1407 1411 1416 1423 1429 1433 1438 1442 1446 1450 1454 1458 1462 1465 1470 1473 1476 1478
1454 1460 1456 1456 1437 1435 1436 1435 1436 1433 1435 1436 1435 1433 1431 1429 1426 1425 1423 1420 1416 1409 1404 1402 1404 1407 1410 1414 1418 1422 1428 1432 1435 1438 1441 1444 1448 1451 1455 1457 1462 1465 1468 1470
1459 1457 1454 1450 1438 1436 1432 1433 1436 1432 1432 1436 1436 1433 1432 1431 1429 1427 1426 1425 1423 1418 1414 1410 1411 1412 1414 1416 1420 1423 1428 1431 1434 1436 1438 1441 1444 1446 1448 1450 1454 1458 1460 1462
1463 1460 1460 1456 1446 1432 1428 1433 1432 1429 1431 1433 1433 1432 1431 1431 1430 1430 1428 1426 1426 1425 1422 1417 1417 1419 1421 1423 1423 1425 1428 1432 1434 1435 1436 1438 1439 1442 1444 1446 1448 1450 1452 1454
1465 1460 1454 1443 1440 1444 1437 1431 1434 1431 1430 1433 1430 1427 1429 1430 1431 1431 1430 1429 1428 1428 1427 1421 1421 1419 1419 1422 1423 1425 1426 1428 1430 1432 1433 1434 1436 1438 1439 1441 1442 1444 1445 1447